Regional Weather Roundup
Issued by NWS

Home | Current Version | Previous Version | Graphics & Text | Print | Product List | Glossary On
Versions: 1 2 3 4 5 6 7 8 9 10 11 12 13 14 15 16 17 18 19 20 21 22 23 24 25 26 27 28 29 30 31 32 33 34 35 36 37 38 39 40 41 42 43 44 45 46 47 48 49 50
000
ASUS43 KOAX 241702
RWRNE

WEATHER ROUNDUP FOR NEBRASKA
NATIONAL WEATHER SERVICE OMAHA NE
1100 AM CST WED DEC 24 2014

NOTES: SATELLITE DATA IS BEING USED TO AUGMENT CLOUD COVER ABOVE
       12000 FEET.
       "FAIR" INDICATES FEW OR NO CLOUDS BELOW 12,000 FEET WITH NO
       SIGNIFICANT WEATHER AND/OR OBSTRUCTIONS TO VISIBILITY.

  * THESE STATIONS DO NOT REPORT WEATHER SUCH AS RAIN...SNOW OR FOG.

NEZ001>004-019>022-054>056-241800-
NEBRASKA PANHANDLE

CITY           SKY/WX    TMP DP  RH WIND       PRES   REMARKS
SCOTTSBLUFF    SUNNY     23  16  74 CALM      29.78F
ALLIANCE       SUNNY     31  20  63 W14       29.75F WCI  21
CHADRON        MOSUNNY   27  17  66 S5        29.74F WCI  22
SIDNEY         SUNNY     33  17  51 W13       29.82F WCI  24
$$

NEZ057>060-069>072-079>082-241800-
SOUTHWEST NEBRASKA

CITY           SKY/WX    TMP DP  RH WIND       PRES   REMARKS
NORTH PLATTE   SUNNY     27  19  72 W12       29.88F WCI  17
IMPERIAL       SUNNY     26  15  63 W10       29.88F WCI  16
LEXINGTON      SUNNY     31  22  71 NW12      29.90F WCI  21
MCCOOK         SUNNY     28  16  60 W7        29.93F WCI  21
$$

NEZ005>010-023>029-035>040-094-241800-
NORTH CENTRAL NEBRASKA

CITY           SKY/WX    TMP DP  RH WIND       PRES   REMARKS
VALENTINE      MOSUNNY   22  17  81 SW3       29.81F
AINSWORTH      MOSUNNY   25  18  74 SW9       29.82F WCI  16
BROKEN BOW     SUNNY     27  19  72 W9        29.86F WCI  18
O`NEILL        CLOUDY    25  25  99 CALM      29.84F FOG
ORD            SUNNY     28  19  69 NW6       29.87F WCI  22
$$

NEZ041-046>049-061>064-073>077-083>087-241800-
SOUTH CENTRAL NEBRASKA

CITY           SKY/WX    TMP DP  RH WIND       PRES   REMARKS
GRAND ISLAND   SUNNY     31  23  72 NW8       29.90F WCI  23
AURORA         CLOUDY    30  26  84 NW9       29.90S WCI  22
HASTINGS       SUNNY     31  23  72 NW9       29.90S WCI  23
KEARNEY *      SUNNY     30  19  64 W9        29.90S WCI  22
$$

NEZ011>018-030>034-042>045-241800-
NORTHEAST NEBRASKA

CITY           SKY/WX    TMP DP  RH WIND       PRES   REMARKS
NORFOLK        CLOUDY    26  23  88 W8        29.86F WCI  18
BLAIR          CLOUDY    31  28  89 NW14      29.86S WCI  21
COLUMBUS *     CLOUDY    27  19  74 NW12      29.90F WCI  16
TEKAMAH        CLOUDY    32  28  85 NW16      29.88F WCI  21
$$

NEZ050>053-065>068-078-088>093-241800-
SOUTHEAST NEBRASKA

CITY           SKY/WX    TMP DP  RH WIND       PRES   REMARKS
LINCOLN        CLOUDY    31  26  82 NW13      29.91F WCI  21
OMAHA EPPLEY   CLOUDY    32  30  92 NW14      29.88F WCI  22
BEATRICE       CLOUDY    31  29  90 NW12      29.90F WCI  22
FALLS CITY     CLOUDY    34  30  85 NW16      29.87F WCI  24
NEBRASKA CITY  CLOUDY    32  32  99 NW10      29.87F WCI  24
$$

NEZ044-045-051>053-067-241800-
OMAHA AREA

CITY           SKY/WX    TMP DP  RH WIND       PRES   REMARKS
OMAHA EPPLEY   CLOUDY    32  30  92 NW14      29.88F WCI  22
BLAIR          CLOUDY    31  28  89 NW14      29.86S WCI  21
WAHOO          CLOUDY    30  26  86 NW10      29.89F WCI  21
$$


USA.gov is the U.S. government's official web portal to all federal, state and local government web resources and services.